This is the latest recevied weather packets stored in our database for station/object KB4RFE. If no packets are shown the sender has not sent any weather packets the latest 10 day(s).
| Time | Temp. | Humidity | Pressure | Rain* | Wind** | Luminosity | Snow |
|---|---|---|---|---|---|---|---|
| 1777996033 | 23.89° C | 58% | 1021.8 hPa | 0 mm | - | 85 W/m² | - |
| 1777995729 | 23.89° C | 60% | 1021.5 hPa | 0 mm | - | 904 W/m² | - |
| 1777995426 | 23.33° C | 58% | 1021.6 hPa | 0 mm | - | 899 W/m² | - |
| 1777995123 | 23.33° C | 58% | 1021.6 hPa | 0 mm | - | 684 W/m² | - |
| 1777994821 | 23.33° C | 59% | 1021.6 hPa | 0 mm | - | 843 W/m² | - |
| 1777994516 | 23.33° C | 60% | 1021.4 hPa | 0 mm | - | 147 W/m² | - |
| 1777994211 | 23.89° C | 59% | 1021.6 hPa | 0 mm | - | 658 W/m² | - |
| 1777993909 | 23.89° C | 57% | 1021.5 hPa | 0 mm | - | 828 W/m² | - |
| 1777993605 | 23.33° C | 59% | 1021.5 hPa | 0 mm | - | 833 W/m² | - |
| 1777993302 | 22.78° C | 59% | 1021.4 hPa | 0 mm | - | 777 W/m² | - |
| 1777992997 | 23.33° C | 57% | 1021.2 hPa | 0 mm | - | 763 W/m² | - |
| 1777992697 | 23.33° C | 60% | 1021.2 hPa | 0 mm | - | 754 W/m² | - |
| 1777992394 | 23.33° C | 58% | 1021 hPa | 0 mm | - | 717 W/m² | - |
| 1777992091 | 23.33° C | 60% | 1021.1 hPa | 0 mm | - | 697 W/m² | - |
| 1777991789 | 22.78° C | 61% | 1021 hPa | 0 mm | - | 675 W/m² | - |
| 1777991486 | 23.33° C | 58% | 1021.2 hPa | 0 mm | - | 657 W/m² | - |
| 1777991183 | 22.78° C | 61% | 1021 hPa | 0 mm | - | 648 W/m² | - |
| 1777990880 | 22.78° C | 59% | 1021.1 hPa | 0 mm | - | 631 W/m² | - |
| 1777990578 | 22.78° C | 59% | 1021.1 hPa | 0 mm | - | 612 W/m² | - |
| 1777989971 | 22.78° C | 60% | 1021.1 hPa | 0 mm | - | 586 W/m² | - |
| 1777989668 | 22.78° C | 61% | 1021.1 hPa | 0 mm | - | 159 W/m² | - |
| 1777989363 | 22.78° C | 62% | 1021 hPa | 0 mm | - | 546 W/m² | - |
| 1777989060 | 22.78° C | 59% | 1021 hPa | 0 mm | - | 525 W/m² | - |
| 1777988756 | 22.78° C | 59% | 1021.2 hPa | 0 mm | - | 502 W/m² | - |
| 1777988454 | 22.22° C | 60% | 1020.8 hPa | 0 mm | - | 482 W/m² | - |
* Rain latest hour (hover to see other rain measurements)
** Current wind speed in m/s (hover to see current wind gust speed)